Weather History for Lubbock, TX

Change the Weather History Date:

Friday, June 28, 2013

  Actual Average Record
Temperature  
Mean Temperature 89 °F 80 °F  
Max Temperature 103 °F 92 °F 108 °F (1928)
Min Temperature 75 °F 67 °F 56 °F (1946)
Degree Days  
Heating Degree Days 0 0  
Month to date heating degree days 0 0  
Since 1 June heating degree days 0 0  
Since 1 July heating degree days 3208 3377  
Cooling Degree Days 24 14  
Month to date cooling degree days 443 345  
Year to date cooling degree days 758 591  
Since 1 June cooling degree days 443 345  
Growing Degree Days 38 (Base 50)    
Moisture  
Dew Point 53 °F    
Average Humidity 34    
Maximum Humidity 50    
Minimum Humidity 18    
Precipitation  
Precipitation 0.00 in 0.08 in 1.56 in (1946)
Month to date precipitation 1.15 2.86  
Year to date precipitation 4.57 9.07  
Snow  
Snow 0.00 in 0.00 in T in (1992)
Month to date snowfall 0.0 0.0  
Since 1 June snowfall 0.0 0.0  
Since 1 July snowfall 4.1 8.2  
Snow Depth 0.00 in    
Sea Level Pressure  
Sea Level Pressure 29.91 in    
Wind  
Wind Speed 9 mph (ENE)    
Max Wind Speed 26 mph    
Max Gust Speed 33 mph    
Visibility 10 miles    
Events      
T = Trace of Precipitation, MM = Missing Value Source: NWS Daily Summary

Daily Weather History Graph

Daily Weather History Graph

Search for Another Location

Airport:

Trip Planner

Search our weather history database for the weather conditions in past years. The results will help you decide how hot, cold, wet, or windy it might be!

Date:

Astronomy

Jun. 28, 2013 Rise Set
Actual Time 6:39 AM CDT 9:01 PM CDT
Civil Twilight 6:10 AM CDT 9:30 PM CDT
Nautical Twilight 5:34 AM CDT 10:06 PM CDT
Astronomical Twilight 4:55 AM CDT 10:45 PM CDT
Moon 12:16 AM CDT (6/28) 12:31 PM CDT (6/28)
Length of Visible Light 15h 20m
Length of Day
14h 22m
Waning Gibbous, 66% of the Moon is Illuminated
Jun 28
Waning Gibbous
Jun 29
Last Quarter
Jul 8
New
Jul 15
First Quarter
Jul 22
Full

Hourly Weather History & Observations

Time (CDT) Temp. Heat Index Dew Point Humidity Pressure Visibility Wind Dir Wind Speed Gust Speed Precip Events Conditions
12:53 AM 84.0 °F 82.5 °F 53.1 °F 34% 29.89 in 10.0 mi SSE 8.1 mph - N/A   Overcast
1:39 AM 87.8 °F - 50.0 °F 27% 30.14 in 10.0 mi NE 20.7 mph 31.1 mph N/A   Overcast
1:53 AM 82.9 °F 81.8 °F 53.1 °F 36% 29.96 in 9.0 mi NE 21.9 mph 31.1 mph N/A   Overcast
2:53 AM 80.1 °F 79.9 °F 53.1 °F 39% 29.97 in 10.0 mi NNE 11.5 mph - N/A   Overcast
3:53 AM 78.1 °F - 52.0 °F 40% 29.91 in 10.0 mi West 8.1 mph - N/A   Overcast
4:53 AM 78.1 °F - 55.0 °F 45% 29.92 in 10.0 mi North 8.1 mph - N/A   Overcast
5:53 AM 75.9 °F - 55.0 °F 48% 29.89 in 10.0 mi ESE 4.6 mph - N/A   Overcast
6:53 AM 75.0 °F - 55.0 °F 50% 29.90 in 10.0 mi Calm Calm - N/A   Mostly Cloudy
7:53 AM 78.1 °F - 55.9 °F 46% 29.92 in 10.0 mi North 4.6 mph - N/A   Mostly Cloudy
8:53 AM 86.0 °F 84.7 °F 55.9 °F 36% 29.95 in 10.0 mi NNE 9.2 mph - N/A   Mostly Cloudy
9:53 AM 88.0 °F 85.9 °F 54.0 °F 31% 29.97 in 10.0 mi North 12.7 mph - N/A   Mostly Cloudy
10:53 AM 93.9 °F - 50.0 °F 22% 29.96 in 10.0 mi NE 10.4 mph - N/A   Mostly Cloudy
11:53 AM 96.1 °F - 51.1 °F 22% 29.94 in 10.0 mi Variable 4.6 mph - N/A   Scattered Clouds
12:53 PM 96.1 °F - 51.1 °F 22% 29.94 in 10.0 mi East 6.9 mph - N/A   Mostly Cloudy
1:53 PM 98.1 °F - 50.0 °F 20% 29.91 in 10.0 mi Variable 6.9 mph 16.1 mph N/A   Mostly Cloudy
2:53 PM 102.0 °F - 50.0 °F 17% 29.89 in 10.0 mi NE 9.2 mph 20.7 mph N/A   Scattered Clouds
3:53 PM 100.9 °F - 50.0 °F 18% 29.88 in 10.0 mi North 8.1 mph - N/A   Scattered Clouds
4:53 PM 100.9 °F - 51.1 °F 19% 29.86 in 10.0 mi East 13.8 mph 17.3 mph N/A   Scattered Clouds
5:53 PM 100.0 °F - 50.0 °F 18% 29.85 in 10.0 mi Variable 5.8 mph 17.3 mph N/A   Scattered Clouds
6:53 PM 99.0 °F - 50.0 °F 19% 29.84 in 10.0 mi ENE 6.9 mph - N/A   Scattered Clouds
7:53 PM 97.0 °F - 52.0 °F 22% 29.84 in 10.0 mi ESE 11.5 mph - N/A   Scattered Clouds
8:53 PM 93.0 °F 90.8 °F 54.0 °F 27% 29.84 in 10.0 mi East 13.8 mph - N/A   Mostly Cloudy
9:53 PM 88.0 °F 86.1 °F 55.0 °F 32% 29.86 in 10.0 mi ESE 8.1 mph - N/A   Scattered Clouds
10:53 PM 84.0 °F 82.9 °F 55.0 °F 37% 29.88 in 10.0 mi ESE 6.9 mph - N/A   Partly Cloudy
11:53 PM 81.0 °F 80.7 °F 55.0 °F 41% 29.87 in 10.0 mi East 5.8 mph - N/A   Clear